[[{"header":{"parameterUnit":"m.s-1","parameterCategory":1,"la1":30.2991,"la2":30.254,"lo1":-89.0895,"lo2":-89.0444,"dy":0.0017,"dx":0.0017,"nx":28,"ny":28,"refTime":"2024-03-31T03:00:00:Z","depth":0,"parameterNumber":2,"parameterNumberName":"U-component_of_WINDS"},"data":[0,0,0,0,0,0,0,0,0,0,0,0,0,0,0,0,0,0,0,0,0,0,0,0,0,0,0,0,0,0,0,0,0,0,0,0,0,0,0,0,0,0,0,0,0,0,0,0,0,0,0,0,0,0,0,0,0,0,-1.9646,-1.9646,0,-1.9668,-1.9668,-1.9669,-1.962,-1.9619,-1.9617,-1.9616,-1.9642,-1.9644,-1.9646,0,0,0,0,0,0,0,0,0,0,0,0,0,-1.9564,-1.9566,-1.9646,-1.9646,-1.9646,-1.9668,-1.9668,-1.9669,-1.962,-1.9619,-1.9617,-1.9615,-1.9641,-1.9644,-1.9646,0,0,0,0,0,0,0,0,0,0,0,0,0,-1.9595,-1.9567,-1.9646,-1.9625,-1.9623,-1.9668,-1.9668,-1.9669,-1.9621,-1.9618,-1.9616,-1.9614,-1.964,-1.9644,-1.9647,-1.9714,0,0,-1.9657,-1.9658,0,0,0,0,0,0,0,0,-1.9593,-1.9598,-1.9628,-1.9626,-1.9625,-1.9639,-1.9649,-1.9684,-1.9621,-1.9622,-1.9615,-1.9613,-1.9643,-1.9646,-1.9655,-1.9715,-1.9717,-1.9657,-1.9659,-1.966,-1.9661,0,0,0,0,0,0,0,-1.9591,-1.9597,-1.9655,-1.9628,-1.9626,-1.9615,-1.9617,-1.9656,-1.9646,-1.9622,-1.9618,-1.9621,-1.9642,-1.9652,-1.9656,-1.9717,-1.9657,-1.966,-1.9662,-1.9663,-1.9832,-1.9835,0,0,0,0,0,0,-1.9591,-1.9595,-1.9654,-1.9655,-1.9603,-1.9619,-1.9621,-1.9637,-1.9645,-1.9644,-1.9623,-1.9619,-1.9648,-1.9652,-1.9657,-1.9735,-1.966,-1.9663,-1.9665,-1.983,-1.9833,-1.9836,0,0,0,0,0,0,-1.959,-1.9597,-1.9653,-1.9624,-1.9631,-1.9623,-1.9641,-1.9638,-1.9649,-1.9646,-1.9644,-1.9636,-1.9646,-1.9652,-1.97,-1.9735,-1.9665,-1.9668,-1.9827,-1.9831,-1.9834,-1.9893,0,0,0,0,0,0,-1.9587,-1.9597,-1.9621,-1.9625,-1.9632,-1.9695,-1.9643,-1.9641,-1.9654,-1.9649,-1.9657,-1.9657,-1.9645,-1.9695,-1.9703,-1.9738,-1.967,-1.9824,-1.9829,-1.9833,-1.9887,-1.9898,-1.9907,0,0,0,0,0,-1.9585,-1.9638,-1.9623,-1.963,-1.9663,-1.9697,-1.9702,-1.9686,-1.9657,-1.9682,-1.9681,-1.9656,-1.973,-1.97,-1.9709,-1.9746,-1.9821,-1.9827,-1.9833,-1.9883,-1.9896,-1.9907,0,0,0,0,0,0,-1.964,-1.9638,-1.9621,-1.9677,-1.9688,-1.9689,-1.972,-1.97,-1.972,-1.9714,-1.9695,-1.9698,-1.9749,-1.9752,-1.9719,-1.9811,-1.9771,-1.9779,-1.9806,-1.9819,-1.9828,-1.9826,-1.9673,0,0,0,0,0,-1.9658,-1.9685,-1.9683,-1.9732,-1.9738,-1.9729,-1.9743,-1.973,-1.9741,-1.9745,-1.9747,-1.9759,-1.9784,-1.9802,-1.9826,-1.9888,-1.9889,-1.9918,-1.9927,-1.9935,-1.9942,-1.9974,-1.9987,-1.9855,-1.9854,-1.9854,0,0,-1.9697,-1.9699,-1.9718,-1.9743,-1.975,-1.9779,-1.9733,-1.9766,-1.9787,-1.975,-1.9795,-1.9797,-1.9809,-1.9864,-1.9889,-1.9869,-1.9979,-1.9943,-1.9949,-1.9951,-1.9981,-1.9994,-2.0005,-1.9858,-1.9858,-1.9857,0,0,-1.9782,-1.9787,-1.9828,-1.9835,-1.9845,-1.9838,-1.9848,-1.9853,-1.9852,-1.9896,-1.9869,-1.9895,-1.994,-1.9949,-1.996,-2.0049,-2.0027,-2.0057,-2.0107,-2.0139,-2.0149,-2.0159,-2.0189,-2.02,-2.0064,-2.0064,-2.0064,0,-1.9829,-1.987,-1.9852,-1.9886,-1.9898,-1.9865,-1.9907,-1.9915,-1.9933,-1.9943,-1.992,-1.9975,-1.9981,-2.0037,-2.0059,-2.0069,-2.008,-2.0055,-2.0149,-2.0158,-2.0166,-2.0195,-2.0207,-2.0068,-2.0067,-2.0067,-2.0067,0,-1.9927,-1.9956,-1.9989,-2.0005,-2.0021,-2.0059,-2.0047,-2.0065,-2.0051,-2.0047,-2.0092,-2.0098,-2.0122,-2.0135,-2.0122,-2.019,-2.0177,-2.0152,-2.0111,-2.0183,-2.0209,-2.022,-2.0073,-2.0071,-2.007,-2.0069,0,0,-2.0046,-2.0051,-2.0064,-2.007,-2.0079,-2.0101,-2.0138,-2.016,-2.0176,-2.019,-2.022,-2.0259,-2.0236,-2.0248,-2.0236,-2.0264,-2.0332,-2.0236,-2.0236,-2.0253,-2.0406,-2.0423,-2.0436,-2.0318,-2.0321,-2.0322,-2.0404,0,-2.0129,-2.019,-2.0175,-2.0236,-2.0262,-2.0232,-2.0264,-2.0273,-2.0271,-2.0293,-2.0291,-2.0318,-2.0286,-2.0293,-2.032,-2.0318,-2.0363,-2.0313,-2.0346,-2.0348,-2.0342,-2.045,-2.0468,-2.0545,-2.0415,-2.0416,-2.0418,0,-2.0233,-2.0249,-2.0313,-2.0316,-2.0327,-2.0355,-2.0374,-2.0396,-2.0406,-2.0402,-2.0416,-2.0398,-2.0435,-2.0395,-2.0446,-2.0412,-2.0425,-2.0427,-2.043,-2.0431,-2.0386,-2.0453,-2.057,-2.0581,-2.0434,-2.0433,-2.0432,0,-2.0312,-2.035,-2.0392,-2.0399,-2.0404,-2.0425,-2.0429,-2.0436,-2.045,-2.0467,-2.0476,-2.0498,-2.051,-2.0527,-2.0516,-2.0488,-2.0568,-2.0528,-2.0566,-2.0566,-2.0583,-2.0582,-2.0702,-2.0594,-2.0594,-2.0594,-2.0594,0,-2.0405,-2.0445,-2.0427,-2.0453,-2.0497,-2.0479,-2.0524,-2.0524,-2.0531,-2.0557,-2.0533,-2.0558,-2.0543,-2.0567,-2.0559,-2.0601,-2.0608,-2.0605,-2.0603,-2.0607,-2.0607,-2.0614,-2.0608,-2.0597,-2.0596,-2.0596,-2.0595,0,-2.05,-2.049,-2.0533,-2.0535,-2.0536,-2.0568,-2.057,-2.0594,-2.059,-2.0623,-2.063,-2.0623,-2.065,-2.0641,-2.0672,-2.0666,-2.0719,-2.0711,-2.0715,-2.0713,-2.0751,-2.0747,-2.0879,-2.0895,-2.0778,-2.0779,-2.078,0,-2.0559,-2.0588,-2.0592,-2.0607,-2.0612,-2.0637,-2.065,-2.0635,-2.065,-2.0664,-2.0687,-2.0712,-2.073,-2.0775,-2.0774,-2.0796,-2.0787,-2.0832,-2.079,-2.0793,-2.0786,-2.0784,-2.0786,-2.084,-2.0841,-2.0842,-2.0843,0,-2.0664,-2.0657,-2.0677,-2.0696,-2.0712,-2.0726,-2.0739,-2.0753,-2.0738,-2.0757,-2.0783,-2.0798,-2.0827,-2.0852,-2.0873,-2.0877,-2.0858,-2.0856,-2.0866,-2.0869,-2.087,-2.0869,-2.0736,-2.0853,-2.0852,-2.0851,-2.0851,-2.085,-2.0741,-2.0766,-2.0772,-2.0795,-2.0802,-2.0814,-2.0836,-2.0834,-2.0856,-2.0878,-2.0868,-2.0899,-2.0908,-2.0933,-2.0941,-2.0965,-2.0948,-2.0962,-2.0966,-2.0969,-2.0973,-2.0868,-2.0969,-2.0969,-2.0968,-2.0968,-2.0968,0,-2.0844,-2.0847,-2.0868,-2.0885,-2.0903,-2.0882,-2.0895,-2.0911,-2.0938,-2.0948,-2.0967,-2.0997,-2.1021,-2.1022,-2.1044,-2.1063,-2.1055,-2.107,-2.1067,-2.1069,-2.0988,-2.0976,-2.1076,-2.1076,-2.1076,-2.1076,-2.1076,-2.1076,-2.0899,-2.0939,-2.0933,-2.0977,-2.0979,-2.1008,-2.1016,-2.1027,-2.1035,-2.1069,-2.1089,-2.1088,-2.1095,-2.1117,-2.1138,-2.1138,-2.1147,-2.1165,-2.1161,-2.1085,-2.1074,-2.1064,-2.1053,-2.1167,-2.1167,-2.1239,-2.124,-2.124]},{"header":{"parameterUnit":"m.s-1","parameterCategory":1,"la1":30.2991,"la2":30.254,"lo1":-89.0895,"lo2":-89.0444,"dy":0.0017,"dx":0.0017,"nx":28,"ny":28,"refTime":"2024-03-31T03:00:00:Z","depth":0,"parameterNumber":3,"parameterNumberName":"V-component_of_WINDS"},"data":[0,0,0,0,0,0,0,0,0,0,0,0,0,0,0,0,0,0,0,0,0,0,0,0,0,0,0,0,0,0,0,0,0,0,0,0,0,0,0,0,0,0,0,0,0,0,0,0,0,0,0,0,0,0,0,0,0,0,0.2407,0.2407,0,0.2413,0.2414,0.2414,0.2378,0.2377,0.2376,0.2375,0.2385,0.2386,0.2387,0,0,0,0,0,0,0,0,0,0,0,0,0,0.2367,0.2368,0.2407,0.2407,0.2407,0.2413,0.2414,0.2414,0.2378,0.2377,0.2375,0.2374,0.2384,0.2386,0.2387,0,0,0,0,0,0,0,0,0,0,0,0,0,0.238,0.2368,0.2407,0.239,0.2389,0.2413,0.2414,0.2414,0.2378,0.2377,0.2375,0.2374,0.2384,0.2385,0.2387,0.243,0,0,0.2393,0.2394,0,0,0,0,0,0,0,0,0.2379,0.2382,0.2392,0.2391,0.239,0.2393,0.2403,0.2419,0.2379,0.2382,0.2375,0.2373,0.2389,0.239,0.2395,0.243,0.2431,0.2393,0.2394,0.2395,0.2396,0,0,0,0,0,0,0,0.2378,0.2381,0.241,0.2393,0.2391,0.2383,0.2383,0.2406,0.2394,0.2382,0.2379,0.238,0.2388,0.2393,0.2395,0.2431,0.2393,0.2395,0.2396,0.2397,0.2502,0.2504,0,0,0,0,0,0,0.2379,0.2381,0.2409,0.241,0.238,0.2385,0.2385,0.2394,0.2394,0.2392,0.2382,0.2379,0.2391,0.2393,0.2395,0.2446,0.2395,0.2397,0.2398,0.2501,0.2503,0.2504,0,0,0,0,0,0,0.2379,0.2382,0.2409,0.2394,0.2397,0.2387,0.2397,0.2395,0.24,0.2394,0.2392,0.2389,0.239,0.2393,0.2421,0.2445,0.2398,0.2399,0.2499,0.2501,0.2504,0.2546,0,0,0,0,0,0,0.2378,0.2382,0.2397,0.2395,0.2398,0.2435,0.2399,0.2396,0.2403,0.2399,0.24,0.2399,0.2389,0.2419,0.2423,0.2447,0.2401,0.2496,0.25,0.2503,0.2543,0.255,0.2556,0,0,0,0,0,0.2376,0.241,0.2398,0.2402,0.2417,0.2436,0.2438,0.2424,0.2405,0.2421,0.2417,0.2399,0.2442,0.2422,0.2427,0.2452,0.2495,0.2499,0.2502,0.254,0.2549,0.2556,0,0,0,0,0,0,0.2416,0.2409,0.2396,0.243,0.2434,0.243,0.2449,0.2434,0.2444,0.244,0.2424,0.2425,0.2457,0.2457,0.2435,0.2493,0.2465,0.247,0.2492,0.25,0.2507,0.2507,0.2402,0,0,0,0,0,0.2429,0.2444,0.2437,0.2467,0.247,0.2459,0.2467,0.2456,0.246,0.2462,0.246,0.2465,0.248,0.249,0.2503,0.2542,0.2543,0.2562,0.2569,0.2574,0.2579,0.2601,0.261,0.2517,0.2517,0.2517,0,0,0.2455,0.2453,0.2464,0.2475,0.2477,0.2494,0.2461,0.248,0.2493,0.2465,0.2492,0.2491,0.2496,0.253,0.2546,0.2532,0.2605,0.2579,0.2584,0.2585,0.2606,0.2615,0.2622,0.252,0.2519,0.2519,0,0,0.2512,0.2512,0.2537,0.2539,0.2542,0.2535,0.2541,0.2539,0.2537,0.2564,0.2544,0.2559,0.2584,0.2589,0.2595,0.2654,0.2638,0.2658,0.2694,0.2716,0.2723,0.2729,0.2752,0.276,0.2663,0.2663,0.2663,0,0.2545,0.2569,0.2553,0.2573,0.2579,0.2554,0.258,0.2583,0.2591,0.2596,0.258,0.2612,0.2613,0.2649,0.2663,0.2668,0.2676,0.2659,0.2723,0.2729,0.2735,0.2756,0.2764,0.2666,0.2665,0.2665,0.2665,0,0.261,0.2627,0.2647,0.2654,0.2662,0.2686,0.2674,0.2685,0.2673,0.2668,0.2697,0.2697,0.271,0.2718,0.2707,0.2752,0.2744,0.2726,0.2697,0.2747,0.2766,0.2774,0.2669,0.2668,0.2668,0.2667,0,0,0.2693,0.269,0.2698,0.2701,0.2702,0.2715,0.2738,0.275,0.276,0.2766,0.2786,0.2808,0.2791,0.2797,0.2787,0.2806,0.2854,0.2785,0.2785,0.2799,0.2905,0.292,0.2929,0.2843,0.2844,0.2846,0.2905,0,0.275,0.2787,0.2773,0.2813,0.2829,0.2804,0.2825,0.2828,0.2824,0.2838,0.2834,0.285,0.2826,0.283,0.2847,0.2844,0.2875,0.284,0.2863,0.2864,0.2863,0.2939,0.2954,0.301,0.2912,0.2914,0.2915,0,0.2821,0.2829,0.2869,0.2868,0.2874,0.2892,0.2902,0.2916,0.2919,0.2915,0.2923,0.2908,0.2932,0.2903,0.2936,0.2912,0.2921,0.292,0.2922,0.2925,0.2893,0.2945,0.3028,0.3037,0.2926,0.2925,0.2924,0,0.2878,0.2899,0.2926,0.293,0.2929,0.2942,0.2942,0.2945,0.2953,0.2962,0.2968,0.298,0.2987,0.2997,0.2987,0.2967,0.3022,0.2992,0.302,0.3021,0.3034,0.3034,0.3121,0.3038,0.3038,0.3037,0.3037,0,0.2944,0.297,0.2952,0.2969,0.2998,0.2982,0.3012,0.301,0.3012,0.3029,0.3009,0.3025,0.301,0.3026,0.3018,0.3048,0.3051,0.3049,0.3047,0.3051,0.3052,0.3058,0.3054,0.304,0.3039,0.3039,0.3038,0,0.3014,0.3003,0.3031,0.3027,0.3027,0.3049,0.3046,0.3062,0.3057,0.3079,0.3083,0.3074,0.3092,0.3082,0.3101,0.3095,0.3134,0.3126,0.3132,0.313,0.316,0.3158,0.3255,0.3267,0.3175,0.3176,0.3177,0,0.3056,0.3076,0.3074,0.3084,0.3085,0.31,0.3109,0.3094,0.3103,0.3109,0.3125,0.3141,0.3152,0.3181,0.3178,0.3192,0.3185,0.3218,0.3187,0.3191,0.3187,0.3186,0.3189,0.3224,0.3225,0.3226,0.3227,0,0.3134,0.3128,0.314,0.315,0.316,0.3168,0.3174,0.3183,0.3168,0.318,0.3197,0.3206,0.3224,0.3241,0.3253,0.3254,0.3239,0.3237,0.3244,0.325,0.3253,0.3253,0.315,0.3235,0.3234,0.3233,0.3233,0.3233,0.3193,0.3209,0.321,0.3225,0.3227,0.3234,0.3249,0.3245,0.3258,0.3271,0.3262,0.3282,0.3287,0.3301,0.3305,0.3322,0.3308,0.3319,0.3322,0.3325,0.333,0.3249,0.3324,0.3323,0.3323,0.3323,0.3323,0,0.327,0.327,0.3283,0.3292,0.3303,0.3286,0.3292,0.3303,0.3321,0.3326,0.3337,0.3358,0.3373,0.337,0.3385,0.3399,0.3392,0.3403,0.3403,0.3404,0.334,0.3333,0.3409,0.3408,0.3408,0.3408,0.3408,0.3408,0.3312,0.3339,0.3333,0.3362,0.3362,0.3381,0.3386,0.3392,0.3396,0.3419,0.3431,0.3429,0.3431,0.3445,0.3459,0.3458,0.3465,0.3479,0.3476,0.3417,0.3408,0.34,0.3393,0.348,0.348,0.3538,0.3539,0.3539]}]]